一网星座-0082星 (ONEWEB-0082 )

导读

ONEWEB-0082是英国一网公司(OneWeb)低轨卫星互联网星座中的一员,于北京时间2020年3月21日,搭乘联盟号火箭从哈萨克斯坦拜科努尔航天发射场成功发射,属于该批次发射的34颗卫星之一。单星质量约147.5kg,入轨后逐步提升至1200公里轨道高度,作为全球互联网星座组网卫星,旨在填补全球通信基础设施缺口,为海事、航空等领域提供高速低时延的全球网络覆盖服务。

Basic Information
目录编号:
45452
目录名称:
ONEWEB-0082
国际标识:
2020-020AE
轨道中心:
EARTH
卫星名称:
一网星座-0082星
卫星全名:
一网星座-0082星 (ONEWEB-0082 )
卫星状态:
在轨 (已飞行2274 天)
发射日期:
2020-03-21 UTC
国别 :
英国 (GB)
星等 :
--
Orbit Information
数据来源 国际轨道数据 AOE轨道数据
星历时间 2026-06-12T11:28:39+0800
17小时前
查看轨道信息
2026-06-11T00:00:00+0800
2天前
查看轨道信息
半长轴 7595.821km 7595.778km
偏心率 0.000196 0.0002217
轨道倾角 87.890° 87.887°
近地点辐角 70.636° 59.920°
升交点赤经 22.062° 22.355°
平近点角 289.498° 165.375°
近地点 1216.195km 1215.957km
远地点 1219.173km 1219.325km
周期 109.805分钟 109.804分钟
每日圈数 13.114167 13.114279
Detailed Information
平衡模式:
三轴稳定
覆盖范围:
全球
运营商:
一网卫星公司
运营商所在国:
英国
制造商(研发单位):
一网卫星公司
制造商所在国:
英国
使用方式:
暂无
Satellite Introduction
OneWeb卫星网络由648颗重约125公斤的微型卫星组成,运行在1200公里的轨道上。 每颗卫星都能够提供至少每秒8千兆位的吞吐量,以使用其高吞吐量的Ku频段有效载荷为家庭和移动平台提供互联网接入。该卫星仍在工作。
2D Orbit Map
3D Orbit Map
Orbit Altitude Analysis Chart
Orbit Inclination Analysis Chart
Orbit Comprehensive Analysis Chart
View Comprehensive Chart